STARLINK-32564, 61924

Orbit data source: Space-Track

STARLINK-32564, 61924 is a payload satellite owned by SpaceX/Seattle (US) in LEO that was launched on Mon, 11 Nov 2024 UTC via an FALCON 9 launch vehicle from the Air Force Eastern Test Range (AFETR). Payload-class satellites include a variety of spacecraft equipped with specific instruments for various scientific and technological missions. These include communications satellites like Starlink; space stations such as the ISS; scientific satellites like the Hubble; Earth observation satellites from companies like Planet Labs, Umbra, and HawkEye 360; GPS; miniature CubeSats for education and research; and military/defense satellites.

Loading next visibility...
Identifier
61924, 2024-207N
Orbit
LEO
Country
Flag of USUS
Related business
Manufacturer
SpaceX/Seattle
Mission
Operational Commercial Communications
Bus & Motor
STARLINK V2M, Unknown motor
Mass
730 kg wet, ~700 kg dry
Launch date (UTC)
2024-11-11 (1 year ago)
Launch vehicle
FALCON 9
Launch site
Air Force Eastern Test Range (AFETR)
Object type
Payload
Rocket body
Debris
Shape & HBR
Box + 2 Pan, 17.7 m
Radar Cross Section
33.884 m², Large (>1 m²)

Expand to show TLE details & history
Last TLE update: 11 hours ago

TLE from 11 hours ago
0 STARLINK-32564
1 61924U 24207N   25312.82840839  .00041282  00000-0  15002-2 0  9999
2 61924  43.0001 248.1347 0003260 276.1925  83.8555 15.27601459 56199
Epoch: 2025-11-08T19:52Z
TLE epoch observation values (Epoch: 2025-11-08T19:52:54.484Z)
Latitude
-0.00005°
Longitude
-98.34479°
Altitude
482.522 km
Speed
7.626 km/s
True Right ascension
16h 32m 32s
True Declination
0° 00' 00"
Sunlit
Object was in daylight at epoch
Visualization orbit readout
Latitude
Unknown
Longitude
Unknown
Altitude
Unknown
Speed
Unknown
Apparent Right ascension
Unknown
Apparent Declination
Unknown
Sunlit
N/A
Visualization observer readout
Local Sidereal Time
02:54:34
Azimuth
Unknown
Elevation
Unknown
Doppler factor
Unknown
Orbital elements
Apogee altitude
487.167 km
Perigee altitude
482.693 km
Semi-major axis
6,863.067 km
Eccentricity
0.00033
Inclination
43.0001°
RAAN
248.1347°
Arg. of periapsis
276.1925°
True anomaly
83.89264°
Mean anomaly
83.8555°
Eccentric anomaly
83.87407°
Mean motion
3.81738 °/min
Orbital period
94.31 mins
BSTAR
0.0015002
Loading maneuver chart data...
Computing Atmospheric mass density...
Loading historical data...
Loading historical data...
Loading historical data...
Loading historical data...
Loading historical data...
Loading historical data...
Loading historical data...

Documentation

Showing up to 5 results
|